Regional Weather Roundup
Issued by NWS Charleston, WV

Home | Current Version | Previous Version | Graphics & Text | Print | Product List | Glossary On
Versions: 1 2 3 4 5 6 7 8 9 10 11 12 13 14 15 16 17 18 19 20 21 22 23 24 25 26 27 28 29 30 31 32 33 34 35 36 37 38 39 40 41 42 43 44 45 46 47 48 49 50
000
ASUS41 KRLX 260710
RWRRLX
West Virginia Regional Weather Roundup
National Weather Service Charleston WV
300 AM EDT THU MAR 26 2015

Note: "fair" indicates few or no clouds below 12,000 feet with no
significant weather and/or obstructions to visibility.

WVZ003-260800-
Northern Panhandle of West Virginia

CITY           SKY/WX    TMP DP  RH WIND       PRES   REMARKS
WHEELING         N/A     51  44  77 CALM      29.96R
$$

WVZ009-260800-
Northwest West Virginia

CITY           SKY/WX    TMP DP  RH WIND       PRES   REMARKS
PARKERSBURG    MOCLDY    49  46  90 E6        29.97F
$$

WVZ006-260800-
Western West Virginia

CITY           SKY/WX    TMP DP  RH WIND       PRES   REMARKS
HUNTINGTON       N/A     57  48  72 E3        29.92F
$$

WVZ015-260800-
West Central West Virginia

CITY           SKY/WX    TMP DP  RH WIND       PRES   REMARKS
CHARLESTON     MOCLDY    53  46  77 CALM      29.94F
$$

WVZ022-031-260800-
North Central West Virginia

CITY           SKY/WX    TMP DP  RH WIND       PRES   REMARKS
CLARKSBURG     MOCLDY    50  45  83 CALM      29.97F
MORGANTOWN     MOCLDY    53  43  68 CALM      29.97F
$$

WVZ025-035-042-045-260800-
Southern West Virginia

CITY           SKY/WX    TMP DP  RH WIND       PRES   REMARKS
BECKLEY          N/A     56  48  74 S12       30.01F
LOGAN          CLOUDY    63  50  63 S5G12     29.93F
BLUEFIELD        N/A     59  49  69 S13G20    30.04F
LEWISBURG      MOCLDY    48  44  87 N3        30.05F
$$

WVZ047-260800-
Northern Mountains of West Virginia

CITY           SKY/WX    TMP DP  RH WIND       PRES   REMARKS
ELKINS         CLOUDY    47  43  86 CALM      30.02F
$$

WVZ052-260800-
Eastern Panhandle of West Virginia

CITY           SKY/WX    TMP DP  RH WIND       PRES   REMARKS
MARTINSBURG      N/A     38  34  85 CALM      30.04F
PETERSBURG     CLOUDY    46  42  84 CALM      30.03S
$$



USA.gov is the U.S. government's official web portal to all federal, state and local government web resources and services.